Time,TemperatureF,DewpointF,PressureIn,WindDirection,WindDirectionDegrees,WindSpeedMPH,WindSpeedGustMPH,Humidity,HourlyPrecipIn,Conditions,Clouds,dailyrainin,SoftwareType,DateUTC
2013-10-04 00:32:00,65.4,64.2,30.05,SSE,149,0.0,0.0,96,0.00,,,0.01,Wunderground v.1.15,2013-10-04 04:32:00,
2013-10-04 00:35:00,65.4,64.2,30.05,SSE,149,0.0,0.0,96,0.00,,,0.01,Wunderground v.1.15,2013-10-04 04:35:00,
2013-10-04 00:36:00,65.3,64.1,30.05,SSE,149,0.0,0.0,96,0.00,,,0.01,Wunderground v.1.15,2013-10-04 04:36:00,
2013-10-04 00:37:00,65.4,64.2,30.05,SSE,149,0.0,0.0,96,0.00,,,0.01,Wunderground v.1.15,2013-10-04 04:37:00,
2013-10-04 00:43:00,65.3,64.1,30.04,SSE,149,0.0,0.0,96,0.00,,,0.01,Wunderground v.1.15,2013-10-04 04:43:00,
2013-10-04 00:44:00,65.3,64.1,30.04,SSE,149,0.0,0.0,96,0.00,,,0.01,Wunderground v.1.15,2013-10-04 04:44:00,
2013-10-04 00:48:00,65.3,64.1,30.04,SSE,149,0.0,0.0,96,0.00,,,0.01,Wunderground v.1.15,2013-10-04 04:48:00,
2013-10-04 00:54:00,65.1,63.9,30.04,SSE,149,0.0,0.0,96,0.00,,,0.01,Wunderground v.1.15,2013-10-04 04:54:00,
2013-10-04 00:56:00,65.1,63.9,30.04,SSE,149,0.0,0.0,96,0.00,,,0.01,Wunderground v.1.15,2013-10-04 04:56:00,
2013-10-04 01:01:00,65.1,63.9,30.05,SSE,149,0.0,0.0,96,0.00,,,0.01,Wunderground v.1.15,2013-10-04 05:01:00,
2013-10-04 01:02:00,65.1,63.9,30.04,SSE,149,0.0,0.0,96,0.00,,,0.01,Wunderground v.1.15,2013-10-04 05:02:00,
2013-10-04 01:08:00,65.1,63.9,30.05,SSE,149,0.0,0.0,96,0.00,,,0.01,Wunderground v.1.15,2013-10-04 05:08:00,
2013-10-04 01:14:00,65.1,63.9,30.05,SSE,149,0.0,0.0,96,0.00,,,0.01,Wunderground v.1.15,2013-10-04 05:14:00,
2013-10-04 01:16:00,65.1,63.9,30.05,SSE,149,0.0,0.0,96,0.00,,,0.01,Wunderground v.1.15,2013-10-04 05:16:00,
2013-10-04 01:30:00,65.0,63.8,30.05,SSE,149,0.0,0.0,96,0.00,,,0.01,Wunderground v.1.15,2013-10-04 05:30:00,
2013-10-04 01:33:00,65.0,63.8,30.05,SSE,149,0.0,0.0,96,0.00,,,0.01,Wunderground v.1.15,2013-10-04 05:33:00,
2013-10-04 01:35:00,65.0,63.8,30.05,SSE,149,0.0,0.0,96,0.00,,,0.01,Wunderground v.1.15,2013-10-04 05:35:00,
2013-10-04 01:40:00,64.9,63.7,30.05,SSE,149,0.0,0.0,96,0.00,,,0.01,Wunderground v.1.15,2013-10-04 05:40:00,
2013-10-04 01:46:00,64.9,63.7,30.04,SSE,149,0.0,0.0,96,0.00,,,0.01,Wunderground v.1.15,2013-10-04 05:46:00,
2013-10-04 01:52:00,64.9,63.7,30.05,SSE,149,0.0,0.0,96,0.00,,,0.01,Wunderground v.1.15,2013-10-04 05:52:00,
2013-10-04 01:57:00,64.8,63.6,30.05,SSE,149,0.0,0.0,96,0.00,,,0.01,Wunderground v.1.15,2013-10-04 05:57:00,
2013-10-04 02:02:00,64.7,63.5,30.05,SSE,149,0.0,0.0,96,0.00,,,0.01,Wunderground v.1.15,2013-10-04 06:02:00,
2013-10-04 02:08:00,64.6,63.4,30.05,SSE,149,0.0,0.0,96,0.00,,,0.01,Wunderground v.1.15,2013-10-04 06:08:00,
2013-10-04 02:13:00,64.5,63.3,30.05,SSE,149,0.0,0.0,96,0.00,,,0.01,Wunderground v.1.15,2013-10-04 06:13:00,
2013-10-04 02:18:00,64.5,63.3,30.05,SSE,149,0.0,0.0,96,0.00,,,0.01,Wunderground v.1.15,2013-10-04 06:18:00,
2013-10-04 02:24:00,64.5,63.3,30.05,SSE,149,0.0,0.0,96,0.00,,,0.01,Wunderground v.1.15,2013-10-04 06:24:00,
2013-10-04 02:29:00,64.5,63.3,30.05,SSE,149,0.0,0.0,96,0.00,,,0.01,Wunderground v.1.15,2013-10-04 06:29:00,
2013-10-04 02:34:00,64.4,63.2,30.05,SSE,149,0.0,0.0,96,0.00,,,0.01,Wunderground v.1.15,2013-10-04 06:34:00,
2013-10-04 02:40:00,64.4,63.2,30.05,SSE,149,0.0,0.0,96,0.00,,,0.01,Wunderground v.1.15,2013-10-04 06:40:00,
2013-10-04 02:45:00,64.5,63.6,30.05,SSE,149,0.0,0.0,97,0.00,,,0.01,Wunderground v.1.15,2013-10-04 06:45:00,
2013-10-04 02:50:00,64.5,63.6,30.04,SSE,149,0.0,0.0,97,0.00,,,0.01,Wunderground v.1.15,2013-10-04 06:50:00,
2013-10-04 02:55:00,64.5,63.6,30.04,SSE,149,0.0,0.0,97,0.00,,,0.01,Wunderground v.1.15,2013-10-04 06:55:00,
2013-10-04 03:00:00,64.5,63.3,30.04,SSE,149,0.0,0.0,96,0.00,,,0.01,Wunderground v.1.15,2013-10-04 07:00:00,
2013-10-04 03:06:00,64.4,63.2,30.04,SSE,149,0.0,0.0,96,0.00,,,0.01,Wunderground v.1.15,2013-10-04 07:06:00,
2013-10-04 03:11:00,64.4,63.2,30.04,SSE,149,0.0,0.0,96,0.00,,,0.01,Wunderground v.1.15,2013-10-04 07:11:00,
2013-10-04 03:16:00,64.3,63.1,30.04,SSE,149,0.0,0.0,96,0.00,,,0.01,Wunderground v.1.15,2013-10-04 07:16:00,
2013-10-04 03:22:00,64.2,63.0,30.04,SSE,149,0.0,0.0,96,0.00,,,0.01,Wunderground v.1.15,2013-10-04 07:22:00,
2013-10-04 03:27:00,64.1,62.9,30.04,SSE,149,0.0,0.0,96,0.00,,,0.01,Wunderground v.1.15,2013-10-04 07:27:00,
2013-10-04 03:32:00,64.0,62.8,30.04,SSE,149,0.0,0.0,96,0.00,,,0.01,Wunderground v.1.15,2013-10-04 07:32:00,
2013-10-04 03:37:00,63.8,62.6,30.04,SSE,149,0.0,0.0,96,0.00,,,0.01,Wunderground v.1.15,2013-10-04 07:37:00,
2013-10-04 03:42:00,63.7,62.5,30.04,SSE,149,0.0,0.0,96,0.00,,,0.01,Wunderground v.1.15,2013-10-04 07:42:00,
2013-10-04 03:48:00,63.5,62.3,30.04,SSE,149,0.0,0.0,96,0.00,,,0.01,Wunderground v.1.15,2013-10-04 07:48:00,
2013-10-04 03:53:00,63.4,62.2,30.04,SSE,149,0.0,0.0,96,0.00,,,0.01,Wunderground v.1.15,2013-10-04 07:53:00,
2013-10-04 03:58:00,63.2,62.0,30.04,SSE,149,0.0,0.0,96,0.00,,,0.01,Wunderground v.1.15,2013-10-04 07:58:00,
2013-10-04 04:03:00,63.1,61.9,30.04,SSE,149,0.0,0.0,96,0.00,,,0.01,Wunderground v.1.15,2013-10-04 08:03:00,
2013-10-04 04:08:00,63.1,61.9,30.04,SSE,149,0.0,0.0,96,0.00,,,0.01,Wunderground v.1.15,2013-10-04 08:08:00,
2013-10-04 04:13:00,63.0,61.8,30.04,SSE,149,0.0,0.0,96,0.00,,,0.01,Wunderground v.1.15,2013-10-04 08:13:00,
2013-10-04 04:19:00,62.9,61.7,30.04,SSE,149,0.0,0.0,96,0.00,,,0.01,Wunderground v.1.15,2013-10-04 08:19:00,
2013-10-04 04:24:00,62.9,61.7,30.04,SSE,149,0.0,0.0,96,0.00,,,0.01,Wunderground v.1.15,2013-10-04 08:24:00,
2013-10-04 04:29:00,62.8,61.6,30.04,SSE,149,0.0,0.0,96,0.00,,,0.01,Wunderground v.1.15,2013-10-04 08:29:00,
2013-10-04 04:34:00,62.9,61.7,30.04,SSE,149,0.0,0.0,96,0.00,,,0.01,Wunderground v.1.15,2013-10-04 08:34:00,
2013-10-04 04:39:00,62.9,61.7,30.04,SSE,149,0.0,0.0,96,0.00,,,0.01,Wunderground v.1.15,2013-10-04 08:39:00,
2013-10-04 04:45:00,62.9,61.7,30.05,SSE,149,0.0,0.0,96,0.00,,,0.01,Wunderground v.1.15,2013-10-04 08:45:00,
2013-10-04 04:50:00,62.8,61.6,30.05,SSE,149,0.0,0.0,96,0.00,,,0.01,Wunderground v.1.15,2013-10-04 08:50:00,
2013-10-04 04:55:00,62.8,61.6,30.05,SSE,149,0.0,0.0,96,0.00,,,0.01,Wunderground v.1.15,2013-10-04 08:55:00,
2013-10-04 05:00:00,62.7,61.8,30.05,SSE,149,0.0,0.0,97,0.00,,,0.01,Wunderground v.1.15,2013-10-04 09:00:00,
2013-10-04 05:06:00,62.8,61.9,30.05,SSE,149,0.0,0.0,97,0.00,,,0.01,Wunderground v.1.15,2013-10-04 09:06:00,
2013-10-04 05:11:00,62.9,62.0,30.05,SSE,149,0.0,0.0,97,0.00,,,0.01,Wunderground v.1.15,2013-10-04 09:11:00,
2013-10-04 05:16:00,62.9,62.0,30.05,SSE,149,0.0,0.0,97,0.00,,,0.01,Wunderground v.1.15,2013-10-04 09:16:00,
2013-10-04 05:21:00,62.8,61.9,30.05,SSE,149,0.0,0.0,97,0.00,,,0.01,Wunderground v.1.15,2013-10-04 09:21:00,
2013-10-04 05:27:00,62.8,61.9,30.05,SSE,149,0.0,0.0,97,0.00,,,0.01,Wunderground v.1.15,2013-10-04 09:27:00,
2013-10-04 05:32:00,62.7,61.8,30.06,SSE,149,0.0,0.0,97,0.00,,,0.01,Wunderground v.1.15,2013-10-04 09:32:00,
2013-10-04 05:37:00,62.6,61.7,30.06,SSE,149,0.0,0.0,97,0.00,,,0.01,Wunderground v.1.15,2013-10-04 09:37:00,
2013-10-04 05:42:00,62.6,61.7,30.06,SSE,149,0.0,0.0,97,0.00,,,0.01,Wunderground v.1.15,2013-10-04 09:42:00,
2013-10-04 05:48:00,62.5,61.6,30.06,SSE,149,0.0,0.0,97,0.00,,,0.01,Wunderground v.1.15,2013-10-04 09:48:00,
2013-10-04 05:53:00,62.7,61.8,30.06,SSE,149,0.0,0.0,97,0.00,,,0.01,Wunderground v.1.15,2013-10-04 09:53:00,
2013-10-04 05:58:00,62.7,61.8,30.06,SSE,149,0.0,0.0,97,0.00,,,0.01,Wunderground v.1.15,2013-10-04 09:58:00,
2013-10-04 06:03:00,62.7,61.8,30.06,SSE,149,0.0,0.0,97,0.00,,,0.01,Wunderground v.1.15,2013-10-04 10:03:00,
2013-10-04 06:08:00,62.6,61.7,30.06,SSE,149,0.0,0.0,97,0.00,,,0.01,Wunderground v.1.15,2013-10-04 10:08:00,
2013-10-04 06:13:00,62.7,61.8,30.06,SSE,149,0.0,0.0,97,0.00,,,0.01,Wunderground v.1.15,2013-10-04 10:13:00,
2013-10-04 06:20:00,62.7,61.8,30.06,SSE,149,0.0,0.0,97,0.00,,,0.01,Wunderground v.1.15,2013-10-04 10:20:00,
2013-10-04 06:25:00,62.8,61.9,30.06,SSE,149,0.0,0.0,97,0.00,,,0.01,Wunderground v.1.15,2013-10-04 10:25:00,
2013-10-04 06:30:00,62.9,62.0,30.06,SSE,149,0.0,0.0,97,0.00,,,0.01,Wunderground v.1.15,2013-10-04 10:30:00,
2013-10-04 06:36:00,62.9,62.0,30.06,SSE,149,0.0,0.0,97,0.00,,,0.01,Wunderground v.1.15,2013-10-04 10:36:00,
2013-10-04 06:41:00,63.0,62.1,30.06,SSE,149,0.0,0.0,97,0.00,,,0.01,Wunderground v.1.15,2013-10-04 10:41:00,
2013-10-04 06:47:00,63.1,62.2,30.07,SSE,149,0.0,0.0,97,0.00,,,0.01,Wunderground v.1.15,2013-10-04 10:47:00,
2013-10-04 06:52:00,63.2,62.3,30.07,SSE,149,0.0,0.0,97,0.00,,,0.01,Wunderground v.1.15,2013-10-04 10:52:00,
2013-10-04 06:57:00,63.2,62.3,30.07,SSE,149,0.0,0.0,97,0.00,,,0.01,Wunderground v.1.15,2013-10-04 10:57:00,
2013-10-04 07:03:00,63.1,62.2,30.07,SSE,149,0.0,0.0,97,0.00,,,0.01,Wunderground v.1.15,2013-10-04 11:03:00,
2013-10-04 07:09:00,63.1,62.2,30.07,SSE,149,0.0,0.0,97,0.00,,,0.01,Wunderground v.1.15,2013-10-04 11:09:00,
2013-10-04 07:14:00,63.1,62.2,30.07,SSE,149,0.0,0.0,97,0.00,,,0.01,Wunderground v.1.15,2013-10-04 11:14:00,
2013-10-04 07:20:00,63.2,62.3,30.07,SSE,149,0.0,0.0,97,0.00,,,0.01,Wunderground v.1.15,2013-10-04 11:20:00,
2013-10-04 07:25:00,63.3,62.4,30.07,SSE,149,0.0,0.0,97,0.00,,,0.01,Wunderground v.1.15,2013-10-04 11:25:00,
2013-10-04 07:30:00,63.4,62.5,30.07,SSE,149,0.0,0.0,97,0.00,,,0.01,Wunderground v.1.15,2013-10-04 11:30:00,
2013-10-04 07:35:00,63.4,62.5,30.07,SSE,149,0.0,0.0,97,0.00,,,0.01,Wunderground v.1.15,2013-10-04 11:35:00,
2013-10-04 07:41:00,63.5,62.6,30.08,SSE,149,0.0,0.0,97,0.00,,,0.01,Wunderground v.1.15,2013-10-04 11:41:00,
2013-10-04 07:47:00,63.5,62.6,30.08,SSE,149,0.0,0.0,97,0.00,,,0.01,Wunderground v.1.15,2013-10-04 11:47:00,
2013-10-04 07:52:00,63.5,62.6,30.08,SSE,149,0.0,0.0,97,0.00,,,0.01,Wunderground v.1.15,2013-10-04 11:52:00,
2013-10-04 07:57:00,63.6,62.7,30.08,SSE,149,0.0,0.0,97,0.00,,,0.01,Wunderground v.1.15,2013-10-04 11:57:00,
2013-10-04 08:02:00,63.6,62.7,30.08,SSE,149,0.0,0.0,97,0.00,,,0.01,Wunderground v.1.15,2013-10-04 12:02:00,
2013-10-04 08:08:00,63.8,62.9,30.08,SSE,149,0.0,0.0,97,0.00,,,0.01,Wunderground v.1.15,2013-10-04 12:08:00,
2013-10-04 08:13:00,63.9,63.0,30.08,SSE,149,0.0,0.0,97,0.00,,,0.01,Wunderground v.1.15,2013-10-04 12:13:00,
2013-10-04 08:18:00,64.0,63.1,30.08,SSE,149,0.0,0.0,97,0.00,,,0.01,Wunderground v.1.15,2013-10-04 12:18:00,
2013-10-04 08:23:00,64.2,63.3,30.08,SSE,149,0.0,0.0,97,0.00,,,0.01,Wunderground v.1.15,2013-10-04 12:23:00,
2013-10-04 08:28:00,64.4,63.5,30.09,SSE,149,0.0,0.0,97,0.00,,,0.01,Wunderground v.1.15,2013-10-04 12:28:00,
2013-10-04 08:33:00,64.7,63.8,30.09,SSE,149,0.0,0.0,97,0.00,,,0.01,Wunderground v.1.15,2013-10-04 12:33:00,
2013-10-04 08:39:00,65.3,64.4,30.09,SSE,149,0.0,0.0,97,0.00,,,0.01,Wunderground v.1.15,2013-10-04 12:39:00,
2013-10-04 08:44:00,65.7,64.8,30.09,SSE,149,0.0,0.0,97,0.00,,,0.01,Wunderground v.1.15,2013-10-04 12:44:00,
2013-10-04 08:49:00,65.8,64.9,30.09,SSE,149,0.0,0.0,97,0.00,,,0.01,Wunderground v.1.15,2013-10-04 12:49:00,
2013-10-04 08:54:00,65.9,65.0,30.10,SSE,149,0.0,0.0,97,0.00,,,0.01,Wunderground v.1.15,2013-10-04 12:54:00,
2013-10-04 08:59:00,66.2,65.3,30.10,ESE,121,0.0,0.0,97,0.00,,,0.01,Wunderground v.1.15,2013-10-04 12:59:00,
2013-10-04 09:05:00,66.5,65.6,30.10,ESE,121,0.0,0.0,97,0.00,,,0.01,Wunderground v.1.15,2013-10-04 13:05:00,
2013-10-04 09:10:00,66.6,65.7,30.10,ESE,121,0.0,0.0,97,0.00,,,0.01,Wunderground v.1.15,2013-10-04 13:10:00,
2013-10-04 09:16:00,66.8,65.9,30.10,ESE,121,0.0,0.0,97,0.00,,,0.01,Wunderground v.1.15,2013-10-04 13:16:00,
2013-10-04 09:22:00,66.9,66.0,30.09,ESE,121,0.0,0.0,97,0.00,,,0.01,Wunderground v.1.15,2013-10-04 13:22:00,
2013-10-04 09:27:00,66.8,65.9,30.09,ESE,114,0.0,0.0,97,0.00,,,0.01,Wunderground v.1.15,2013-10-04 13:27:00,
2013-10-04 09:32:00,67.0,65.8,30.09,SE,136,0.0,0.0,96,0.00,,,0.01,Wunderground v.1.15,2013-10-04 13:32:00,
2013-10-04 09:37:00,67.7,66.5,30.09,SE,126,0.0,0.0,96,0.00,,,0.01,Wunderground v.1.15,2013-10-04 13:37:00,
2013-10-04 09:42:00,68.2,67.0,30.09,ESE,116,0.0,0.0,96,0.00,,,0.01,Wunderground v.1.15,2013-10-04 13:42:00,
2013-10-04 09:48:00,68.9,67.4,30.09,ESE,108,0.0,0.0,95,0.00,,,0.01,Wunderground v.1.15,2013-10-04 13:48:00,
2013-10-04 09:53:00,69.2,67.1,30.09,SE,126,0.0,0.0,93,0.00,,,0.01,Wunderground v.1.15,2013-10-04 13:53:00,
2013-10-04 09:58:00,69.4,67.0,30.09,SE,128,0.0,0.0,92,0.00,,,0.01,Wunderground v.1.15,2013-10-04 13:58:00,
2013-10-04 10:04:00,69.7,67.0,30.09,East,94,0.0,0.0,91,0.00,,,0.01,Wunderground v.1.15,2013-10-04 14:04:00,
2013-10-04 10:10:00,69.9,67.2,30.09,East,101,0.0,0.0,91,0.00,,,0.01,Wunderground v.1.15,2013-10-04 14:10:00,
2013-10-04 10:15:00,70.6,67.8,30.09,SE,124,0.0,0.0,91,0.00,,,0.01,Wunderground v.1.15,2013-10-04 14:15:00,
2013-10-04 10:20:00,71.0,67.6,30.09,SE,142,0.0,0.0,89,0.00,,,0.01,Wunderground v.1.15,2013-10-04 14:20:00,
2013-10-04 10:25:00,71.2,67.1,30.09,SE,140,0.0,0.0,87,0.00,,,0.01,Wunderground v.1.15,2013-10-04 14:25:00,
2013-10-04 10:31:00,71.7,67.6,30.09,ESE,115,0.0,0.0,87,0.00,,,0.01,Wunderground v.1.15,2013-10-04 14:31:00,
2013-10-04 10:37:00,72.1,67.7,30.09,ESE,122,0.0,0.0,86,0.00,,,0.01,Wunderground v.1.15,2013-10-04 14:37:00,
2013-10-04 10:42:00,72.6,68.5,30.09,SE,134,0.0,0.0,87,0.00,,,0.01,Wunderground v.1.15,2013-10-04 14:42:00,
2013-10-04 10:47:00,72.9,68.1,30.08,ESE,123,0.0,0.0,85,0.00,,,0.01,Wunderground v.1.15,2013-10-04 14:47:00,
2013-10-04 10:52:00,73.1,68.7,30.08,SE,131,0.0,0.0,86,0.00,,,0.01,Wunderground v.1.15,2013-10-04 14:52:00,
2013-10-04 10:57:00,73.4,68.3,30.08,ESE,120,0.0,0.0,84,0.00,,,0.01,Wunderground v.1.15,2013-10-04 14:57:00,
2013-10-04 11:03:00,73.7,67.9,30.08,ESE,116,0.0,0.0,82,0.00,,,0.01,Wunderground v.1.15,2013-10-04 15:03:00,
2013-10-04 11:08:00,73.8,68.3,30.08,SE,135,0.0,0.0,83,0.00,,,0.01,Wunderground v.1.15,2013-10-04 15:08:00,
2013-10-04 11:13:00,74.0,68.9,30.07,SE,144,0.0,0.0,84,0.00,,,0.01,Wunderground v.1.15,2013-10-04 15:13:00,
2013-10-04 11:19:00,74.4,68.9,30.07,SE,136,0.0,0.0,83,0.00,,,0.01,Wunderground v.1.15,2013-10-04 15:19:00,
2013-10-04 11:22:00,74.5,68.6,30.07,SE,124,0.0,0.0,82,0.00,,,0.01,Wunderground v.1.15,2013-10-04 15:22:00,
2013-10-04 11:27:00,74.7,68.5,30.07,ESE,119,0.0,1.0,81,0.00,,,0.01,Wunderground v.1.15,2013-10-04 15:27:00,
2013-10-04 11:32:00,74.7,68.5,30.07,ESE,111,0.0,0.0,81,0.00,,,0.01,Wunderground v.1.15,2013-10-04 15:32:00,
2013-10-04 11:37:00,74.7,68.8,30.07,SE,128,0.0,0.0,82,0.00,,,0.01,Wunderground v.1.15,2013-10-04 15:37:00,
2013-10-04 11:42:00,74.6,68.7,30.07,ESE,115,0.0,0.0,82,0.00,,,0.01,Wunderground v.1.15,2013-10-04 15:42:00,
2013-10-04 11:48:00,74.7,68.5,30.07,NE,42,0.0,0.0,81,0.00,,,0.01,Wunderground v.1.15,2013-10-04 15:48:00,
2013-10-04 11:53:00,75.4,69.9,30.06,SE,128,0.0,0.0,83,0.00,,,0.01,Wunderground v.1.15,2013-10-04 15:53:00,
2013-10-04 11:58:00,76.3,70.0,30.06,ESE,106,0.0,0.0,81,0.00,,,0.01,Wunderground v.1.15,2013-10-04 15:58:00,
2013-10-04 12:03:00,76.7,69.3,30.06,ESE,117,0.0,0.0,78,0.00,,,0.01,Wunderground v.1.15,2013-10-04 16:03:00,
2013-10-04 12:08:00,77.0,68.9,30.06,ESE,105,0.0,0.0,76,0.00,,,0.01,Wunderground v.1.15,2013-10-04 16:08:00,
2013-10-04 12:13:00,76.8,69.0,30.07,ENE,68,0.0,0.0,77,0.00,,,0.01,Wunderground v.1.15,2013-10-04 16:13:00,
2013-10-04 12:19:00,76.5,69.1,30.06,SSE,153,0.0,0.0,78,0.00,,,0.01,Wunderground v.1.15,2013-10-04 16:19:00,
2013-10-04 12:25:00,76.4,69.4,30.06,East,96,0.0,0.0,79,0.00,,,0.01,Wunderground v.1.15,2013-10-04 16:25:00,
2013-10-04 12:30:00,76.5,69.5,30.06,SE,136,0.0,0.0,79,0.00,,,0.01,Wunderground v.1.15,2013-10-04 16:30:00,
2013-10-04 12:35:00,76.6,69.6,30.07,ENE,63,0.0,0.0,79,0.00,,,0.01,Wunderground v.1.15,2013-10-04 16:35:00,
2013-10-04 12:40:00,77.0,69.6,30.06,ESE,121,0.0,0.0,78,0.00,,,0.01,Wunderground v.1.15,2013-10-04 16:40:00,
2013-10-04 12:45:00,77.3,70.3,30.06,SE,124,0.0,0.0,79,0.00,,,0.01,Wunderground v.1.15,2013-10-04 16:45:00,
2013-10-04 12:51:00,77.3,69.1,30.06,ENE,65,0.0,0.0,76,0.00,,,0.01,Wunderground v.1.15,2013-10-04 16:51:00,
2013-10-04 12:57:00,77.2,69.8,30.06,East,101,0.0,0.0,78,0.00,,,0.01,Wunderground v.1.15,2013-10-04 16:57:00,
2013-10-04 13:02:00,77.6,69.0,30.06,NNE,24,0.0,0.0,75,0.00,,,0.01,Wunderground v.1.15,2013-10-04 17:02:00,
2013-10-04 13:07:00,77.9,69.3,30.05,ESE,108,0.0,0.0,75,0.00,,,0.01,Wunderground v.1.15,2013-10-04 17:07:00,
2013-10-04 13:12:00,78.3,70.5,30.05,ENE,65,0.0,0.0,77,0.00,,,0.01,Wunderground v.1.15,2013-10-04 17:12:00,
2013-10-04 13:18:00,79.1,70.1,30.05,ESE,108,0.0,0.0,74,0.00,,,0.01,Wunderground v.1.15,2013-10-04 17:18:00,
2013-10-04 13:23:00,79.2,69.4,30.05,SE,126,0.0,0.0,72,0.00,,,0.01,Wunderground v.1.15,2013-10-04 17:23:00,
2013-10-04 13:28:00,79.0,69.2,30.04,ESE,117,0.0,0.0,72,0.00,,,0.01,Wunderground v.1.15,2013-10-04 17:28:00,
2013-10-04 13:33:00,78.9,69.9,30.04,SSE,162,0.0,0.0,74,0.00,,,0.01,Wunderground v.1.15,2013-10-04 17:33:00,
2013-10-04 13:59:00,79.7,70.3,30.03,ESE,104,0.0,0.0,73,0.00,,,0.01,Wunderground v.1.15,2013-10-04 17:59:00,
2013-10-04 14:05:00,80.6,69.1,30.03,ESE,118,0.0,0.0,68,0.00,,,0.01,Wunderground v.1.15,2013-10-04 18:05:00,
2013-10-04 14:10:00,81.0,69.9,30.03,ESE,119,0.0,0.0,69,0.00,,,0.01,Wunderground v.1.15,2013-10-04 18:10:00,
2013-10-04 14:15:00,81.1,70.0,30.03,ESE,105,0.0,0.0,69,0.00,,,0.01,Wunderground v.1.15,2013-10-04 18:15:00,
2013-10-04 14:20:00,80.9,68.9,30.03,ESE,105,0.0,0.0,67,0.00,,,0.01,Wunderground v.1.15,2013-10-04 18:20:00,
2013-10-04 14:26:00,80.3,68.8,30.03,NE,46,0.0,0.0,68,0.00,,,0.01,Wunderground v.1.15,2013-10-04 18:26:00,
2013-10-04 14:32:00,80.1,69.0,30.02,ENE,74,0.0,0.0,69,0.00,,,0.01,Wunderground v.1.15,2013-10-04 18:32:00,
2013-10-04 14:37:00,80.0,69.3,30.02,West,275,0.0,1.0,70,0.00,,,0.01,Wunderground v.1.15,2013-10-04 18:37:00,
2013-10-04 14:43:00,79.6,69.4,30.02,ENE,69,0.0,0.0,71,0.00,,,0.01,Wunderground v.1.15,2013-10-04 18:43:00,
2013-10-04 14:48:00,79.2,68.6,30.02,ESE,103,0.0,0.0,70,0.00,,,0.01,Wunderground v.1.15,2013-10-04 18:48:00,
2013-10-04 14:53:00,79.0,68.8,30.02,SE,127,0.0,0.0,71,0.00,,,0.01,Wunderground v.1.15,2013-10-04 18:53:00,
2013-10-04 14:59:00,79.5,69.3,30.02,ENE,64,0.0,0.0,71,0.00,,,0.01,Wunderground v.1.15,2013-10-04 18:59:00,
2013-10-04 15:04:00,80.1,68.6,30.02,NE,46,0.0,0.0,68,0.00,,,0.01,Wunderground v.1.15,2013-10-04 19:04:00,
2013-10-04 15:09:00,80.3,69.2,30.02,ESE,118,0.0,1.0,69,0.00,,,0.01,Wunderground v.1.15,2013-10-04 19:09:00,
2013-10-04 15:15:00,80.1,68.6,30.02,ESE,106,0.0,0.0,68,0.00,,,0.01,Wunderground v.1.15,2013-10-04 19:15:00,
2013-10-04 15:20:00,80.0,69.3,30.02,ESE,117,0.0,0.0,70,0.00,,,0.01,Wunderground v.1.15,2013-10-04 19:20:00,
2013-10-04 15:25:00,80.1,68.2,30.01,ENE,68,0.0,0.0,67,0.00,,,0.01,Wunderground v.1.15,2013-10-04 19:25:00,
2013-10-04 15:30:00,80.3,69.2,30.02,South,180,0.0,0.0,69,0.00,,,0.01,Wunderground v.1.15,2013-10-04 19:30:00,
2013-10-04 15:36:00,80.3,68.8,30.01,NNE,33,0.0,0.0,68,0.00,,,0.01,Wunderground v.1.15,2013-10-04 19:36:00,
2013-10-04 15:42:00,80.0,69.3,30.01,ESE,122,0.0,0.0,70,0.00,,,0.01,Wunderground v.1.15,2013-10-04 19:42:00,
2013-10-04 15:47:00,79.7,69.5,30.01,SE,132,0.0,0.0,71,0.00,,,0.01,Wunderground v.1.15,2013-10-04 19:47:00,
2013-10-04 15:52:00,79.6,70.2,30.01,SSE,148,0.0,0.0,73,0.00,,,0.01,Wunderground v.1.15,2013-10-04 19:52:00,
2013-10-04 15:57:00,79.3,68.7,30.01,ENE,68,0.0,0.0,70,0.00,,,0.01,Wunderground v.1.15,2013-10-04 19:57:00,
2013-10-04 16:03:00,79.4,67.5,30.01,ENE,68,0.0,0.0,67,0.00,,,0.01,Wunderground v.1.15,2013-10-04 20:03:00,
2013-10-04 16:08:00,79.8,65.6,30.01,ESE,116,0.0,0.0,62,0.00,,,0.01,Wunderground v.1.15,2013-10-04 20:08:00,
2013-10-04 16:13:00,79.8,68.7,30.01,East,101,0.0,0.0,69,0.00,,,0.01,Wunderground v.1.15,2013-10-04 20:13:00,
2013-10-04 16:18:00,79.5,66.3,30.01,ESE,121,0.0,0.0,64,0.00,,,0.01,Wunderground v.1.15,2013-10-04 20:18:00,
2013-10-04 16:24:00,79.3,67.8,30.01,East,95,0.0,0.0,68,0.00,,,0.01,Wunderground v.1.15,2013-10-04 20:24:00,
2013-10-04 16:29:00,79.1,67.6,30.01,South,171,0.0,0.0,68,0.00,,,0.01,Wunderground v.1.15,2013-10-04 20:29:00,
2013-10-04 16:34:00,79.0,67.5,30.01,SSW,198,0.0,0.0,68,0.00,,,0.01,Wunderground v.1.15,2013-10-04 20:34:00,
2013-10-04 16:39:00,79.0,68.4,30.01,SSE,164,0.0,0.0,70,0.00,,,0.01,Wunderground v.1.15,2013-10-04 20:39:00,
2013-10-04 16:44:00,79.2,67.3,30.01,East,88,0.0,0.0,67,0.00,,,0.01,Wunderground v.1.15,2013-10-04 20:44:00,
2013-10-04 16:50:00,79.2,66.9,30.01,SSE,155,0.0,0.0,66,0.00,,,0.01,Wunderground v.1.15,2013-10-04 20:50:00,
2013-10-04 16:55:00,78.8,67.8,30.01,SSE,155,0.0,0.0,69,0.00,,,0.01,Wunderground v.1.15,2013-10-04 20:55:00,
2013-10-04 17:00:00,78.2,68.0,30.01,SSE,155,0.0,0.0,71,0.00,,,0.01,Wunderground v.1.15,2013-10-04 21:00:00,
2013-10-04 17:06:00,77.7,68.7,30.02,SSE,154,0.0,0.0,74,0.00,,,0.01,Wunderground v.1.15,2013-10-04 21:06:00,
2013-10-04 17:11:00,77.2,67.5,30.02,SSE,167,0.0,0.0,72,0.00,,,0.01,Wunderground v.1.15,2013-10-04 21:11:00,
2013-10-04 17:16:00,76.9,68.8,30.02,SSE,167,0.0,0.0,76,0.00,,,0.01,Wunderground v.1.15,2013-10-04 21:16:00,
2013-10-04 17:21:00,76.3,67.8,30.02,SSE,167,0.0,0.0,75,0.00,,,0.01,Wunderground v.1.15,2013-10-04 21:21:00,
2013-10-04 17:26:00,75.7,67.2,30.02,East,99,0.0,0.0,75,0.00,,,0.01,Wunderground v.1.15,2013-10-04 21:26:00,
2013-10-04 17:31:00,75.2,67.9,30.02,East,99,0.0,0.0,78,0.00,,,0.01,Wunderground v.1.15,2013-10-04 21:31:00,
2013-10-04 17:37:00,74.6,68.7,30.02,East,99,0.0,0.0,82,0.00,,,0.01,Wunderground v.1.15,2013-10-04 21:37:00,
2013-10-04 17:43:00,73.8,68.3,30.02,East,99,0.0,0.0,83,0.00,,,0.01,Wunderground v.1.15,2013-10-04 21:43:00,
2013-10-04 17:48:00,73.2,68.1,30.03,ESE,122,0.0,0.0,84,0.00,,,0.02,Wunderground v.1.15,2013-10-04 21:48:00,
2013-10-04 17:53:00,72.6,67.8,30.03,ESE,121,0.0,0.0,85,0.12,,,0.03,Wunderground v.1.15,2013-10-04 21:53:00,
2013-10-04 17:58:00,72.0,67.9,30.04,SE,130,0.0,0.0,87,0.08,,,0.03,Wunderground v.1.15,2013-10-04 21:58:00,
2013-10-04 18:04:00,71.5,68.1,30.03,ESE,115,0.0,0.0,89,0.07,,,0.04,Wunderground v.1.15,2013-10-04 22:04:00,
2013-10-04 18:10:00,71.1,68.0,30.03,ESE,115,0.0,0.0,90,0.05,,,0.04,Wunderground v.1.15,2013-10-04 22:10:00,
2013-10-04 18:15:00,71.0,68.2,30.03,ESE,115,0.0,0.0,91,0.04,,,0.04,Wunderground v.1.15,2013-10-04 22:15:00,
2013-10-04 18:20:00,70.7,67.9,30.03,ESE,115,0.0,0.0,91,0.00,,,0.04,Wunderground v.1.15,2013-10-04 22:20:00,
2013-10-04 18:26:00,70.5,68.1,30.03,ESE,115,0.0,0.0,92,0.00,,,0.04,Wunderground v.1.15,2013-10-04 22:26:00,
2013-10-04 18:32:00,70.3,67.9,30.03,ESE,115,0.0,0.0,92,0.00,,,0.04,Wunderground v.1.15,2013-10-04 22:32:00,
2013-10-04 18:37:00,70.1,68.0,30.03,ESE,115,0.0,0.0,93,0.00,,,0.04,Wunderground v.1.15,2013-10-04 22:37:00,
2013-10-04 18:42:00,69.9,67.8,30.03,ESE,115,0.0,0.0,93,0.00,,,0.04,Wunderground v.1.15,2013-10-04 22:42:00,
2013-10-04 18:47:00,69.8,67.7,30.03,ESE,115,0.0,0.0,93,0.00,,,0.04,Wunderground v.1.15,2013-10-04 22:47:00,
2013-10-04 18:53:00,69.6,67.5,30.04,ESE,115,0.0,0.0,93,0.00,,,0.04,Wunderground v.1.15,2013-10-04 22:53:00,
2013-10-04 18:58:00,69.5,67.7,30.04,ESE,115,0.0,0.0,94,0.00,,,0.04,Wunderground v.1.15,2013-10-04 22:58:00,
2013-10-04 19:04:00,69.4,67.6,30.04,ESE,115,0.0,0.0,94,0.00,,,0.04,Wunderground v.1.15,2013-10-04 23:04:00,
2013-10-04 19:09:00,69.4,67.6,30.04,ESE,115,0.0,0.0,94,0.00,,,0.04,Wunderground v.1.15,2013-10-04 23:09:00,
2013-10-04 19:14:00,69.3,67.5,30.04,ESE,115,0.0,0.0,94,0.00,,,0.04,Wunderground v.1.15,2013-10-04 23:14:00,
2013-10-04 19:19:00,69.2,67.4,30.05,ESE,115,0.0,0.0,94,0.00,,,0.04,Wunderground v.1.15,2013-10-04 23:19:00,
2013-10-04 19:24:00,69.2,67.4,30.05,ESE,115,0.0,0.0,94,0.00,,,0.04,Wunderground v.1.15,2013-10-04 23:24:00,
2013-10-04 19:30:00,69.2,67.4,30.05,ESE,115,0.0,0.0,94,0.00,,,0.04,Wunderground v.1.15,2013-10-04 23:30:00,
2013-10-04 19:35:00,69.1,67.3,30.05,ESE,115,0.0,0.0,94,0.00,,,0.04,Wunderground v.1.15,2013-10-04 23:35:00,
2013-10-04 19:40:00,69.1,67.6,30.05,ESE,115,0.0,0.0,95,0.00,,,0.04,Wunderground v.1.15,2013-10-04 23:40:00,
2013-10-04 19:45:00,69.0,67.5,30.05,ESE,115,0.0,0.0,95,0.00,,,0.04,Wunderground v.1.15,2013-10-04 23:45:00,
2013-10-04 19:51:00,69.0,67.5,30.04,ESE,115,0.0,0.0,95,0.00,,,0.04,Wunderground v.1.15,2013-10-04 23:51:00,
2013-10-04 19:57:00,69.0,67.5,30.04,ESE,115,0.0,0.0,95,0.00,,,0.04,Wunderground v.1.15,2013-10-04 23:57:00,
2013-10-04 20:02:00,68.9,67.4,30.05,ESE,115,0.0,0.0,95,0.00,,,0.04,Wunderground v.1.15,2013-10-05 00:02:00,
2013-10-04 20:08:00,68.8,67.3,30.04,ESE,115,0.0,0.0,95,0.00,,,0.04,Wunderground v.1.15,2013-10-05 00:08:00,
2013-10-04 20:13:00,68.8,67.3,30.04,ESE,115,0.0,0.0,95,0.00,,,0.04,Wunderground v.1.15,2013-10-05 00:13:00,
2013-10-04 20:18:00,68.7,67.2,30.04,ESE,115,0.0,0.0,95,0.00,,,0.04,Wunderground v.1.15,2013-10-05 00:18:00,
2013-10-04 20:23:00,68.6,67.1,30.04,ESE,115,0.0,0.0,95,0.00,,,0.04,Wunderground v.1.15,2013-10-05 00:23:00,
2013-10-04 20:28:00,68.5,67.0,30.04,ESE,115,0.0,0.0,95,0.00,,,0.04,Wunderground v.1.15,2013-10-05 00:28:00,
2013-10-04 20:34:00,68.3,66.8,30.04,ESE,115,0.0,0.0,95,0.00,,,0.04,Wunderground v.1.15,2013-10-05 00:34:00,
2013-10-04 20:39:00,68.1,66.6,30.04,ESE,115,0.0,0.0,95,0.00,,,0.04,Wunderground v.1.15,2013-10-05 00:39:00,
2013-10-04 20:44:00,68.0,66.5,30.04,ESE,115,0.0,0.0,95,0.00,,,0.04,Wunderground v.1.15,2013-10-05 00:44:00,
2013-10-04 20:50:00,67.9,66.4,30.05,ESE,115,0.0,0.0,95,0.00,,,0.04,Wunderground v.1.15,2013-10-05 00:50:00,
2013-10-04 20:55:00,67.8,66.3,30.05,ESE,115,0.0,0.0,95,0.00,,,0.04,Wunderground v.1.15,2013-10-05 00:55:00,
2013-10-04 21:00:00,67.6,66.1,30.05,ESE,115,0.0,0.0,95,0.00,,,0.04,Wunderground v.1.15,2013-10-05 01:00:00,
2013-10-04 21:06:00,67.5,66.0,30.05,ESE,115,0.0,0.0,95,0.00,,,0.04,Wunderground v.1.15,2013-10-05 01:06:00,
2013-10-04 21:11:00,67.5,66.0,30.04,ESE,115,0.0,0.0,95,0.00,,,0.04,Wunderground v.1.15,2013-10-05 01:11:00,
2013-10-04 21:17:00,67.3,65.8,30.04,ESE,115,0.0,0.0,95,0.00,,,0.04,Wunderground v.1.15,2013-10-05 01:17:00,
2013-10-04 21:22:00,67.2,65.7,30.05,ESE,115,0.0,0.0,95,0.00,,,0.04,Wunderground v.1.15,2013-10-05 01:22:00,
2013-10-04 21:27:00,67.1,65.6,30.05,ESE,115,0.0,0.0,95,0.00,,,0.04,Wunderground v.1.15,2013-10-05 01:27:00,
2013-10-04 21:32:00,67.0,65.5,30.04,ESE,115,0.0,0.0,95,0.00,,,0.04,Wunderground v.1.15,2013-10-05 01:32:00,
2013-10-04 21:37:00,66.9,65.4,30.05,ESE,115,0.0,0.0,95,0.00,,,0.04,Wunderground v.1.15,2013-10-05 01:37:00,
2013-10-04 21:43:00,66.9,65.7,30.05,ESE,115,0.0,0.0,96,0.00,,,0.04,Wunderground v.1.15,2013-10-05 01:43:00,
2013-10-04 21:48:00,66.9,65.7,30.05,ESE,115,0.0,0.0,96,0.00,,,0.04,Wunderground v.1.15,2013-10-05 01:48:00,
2013-10-04 21:53:00,66.9,65.7,30.05,ESE,115,0.0,0.0,96,0.00,,,0.05,Wunderground v.1.15,2013-10-05 01:53:00,
2013-10-04 21:59:00,66.8,65.6,30.05,ESE,115,0.0,0.0,96,0.00,,,0.05,Wunderground v.1.15,2013-10-05 01:59:00,
2013-10-04 22:04:00,66.8,65.6,30.05,ESE,115,0.0,0.0,96,0.00,,,0.05,Wunderground v.1.15,2013-10-05 02:04:00,
2013-10-04 22:10:00,66.8,65.6,30.05,ESE,115,0.0,0.0,96,0.00,,,0.05,Wunderground v.1.15,2013-10-05 02:10:00,
2013-10-04 22:15:00,66.8,65.6,30.05,ESE,115,0.0,0.0,96,0.00,,,0.05,Wunderground v.1.15,2013-10-05 02:15:00,
2013-10-04 22:20:00,66.8,65.6,30.05,ESE,115,0.0,0.0,96,0.00,,,0.05,Wunderground v.1.15,2013-10-05 02:20:00,
2013-10-04 22:26:00,66.7,65.5,30.05,ESE,115,0.0,0.0,96,0.00,,,0.05,Wunderground v.1.15,2013-10-05 02:26:00,
2013-10-04 22:32:00,66.6,65.4,30.06,ESE,115,0.0,0.0,96,0.00,,,0.05,Wunderground v.1.15,2013-10-05 02:32:00,
2013-10-04 22:37:00,66.6,65.4,30.06,ESE,115,0.0,0.0,96,0.00,,,0.05,Wunderground v.1.15,2013-10-05 02:37:00,
2013-10-04 22:43:00,66.6,65.4,30.06,ESE,115,0.0,0.0,96,0.00,,,0.05,Wunderground v.1.15,2013-10-05 02:43:00,
2013-10-04 22:48:00,66.5,65.3,30.06,ESE,115,0.0,0.0,96,0.00,,,0.05,Wunderground v.1.15,2013-10-05 02:48:00,
2013-10-04 22:53:00,66.5,65.3,30.06,ESE,115,0.0,0.0,96,0.00,,,0.05,Wunderground v.1.15,2013-10-05 02:53:00,
2013-10-04 22:59:00,66.4,65.2,30.06,ESE,115,0.0,0.0,96,0.00,,,0.05,Wunderground v.1.15,2013-10-05 02:59:00,
2013-10-04 23:04:00,66.3,65.1,30.06,ESE,115,0.0,0.0,96,0.00,,,0.05,Wunderground v.1.15,2013-10-05 03:04:00,
2013-10-04 23:10:00,66.3,65.1,30.06,ESE,115,0.0,0.0,96,0.00,,,0.05,Wunderground v.1.15,2013-10-05 03:10:00,
2013-10-04 23:16:00,66.2,65.0,30.06,ESE,115,0.0,0.0,96,0.00,,,0.05,Wunderground v.1.15,2013-10-05 03:16:00,
2013-10-04 23:21:00,66.2,65.0,30.06,ESE,115,0.0,0.0,96,0.00,,,0.05,Wunderground v.1.15,2013-10-05 03:21:00,
2013-10-04 23:26:00,66.1,64.9,30.06,ESE,115,0.0,0.0,96,0.00,,,0.05,Wunderground v.1.15,2013-10-05 03:26:00,
2013-10-04 23:31:00,66.1,64.9,30.06,ESE,115,0.0,0.0,96,0.00,,,0.05,Wunderground v.1.15,2013-10-05 03:31:00,
2013-10-04 23:36:00,66.1,64.9,30.06,ESE,115,0.0,0.0,96,0.00,,,0.05,Wunderground v.1.15,2013-10-05 03:36:00,
2013-10-04 23:42:00,66.0,64.8,30.07,ESE,115,0.0,0.0,96,0.00,,,0.05,Wunderground v.1.15,2013-10-05 03:42:00,
2013-10-04 23:47:00,65.9,64.7,30.06,ESE,115,0.0,0.0,96,0.00,,,0.05,Wunderground v.1.15,2013-10-05 03:47:00,
2013-10-04 23:52:00,65.9,64.7,30.06,ESE,115,0.0,0.0,96,0.00,,,0.05,Wunderground v.1.15,2013-10-05 03:52:00,
2013-10-04 23:58:00,65.9,64.7,30.06,ESE,115,0.0,0.0,96,0.00,,,0.05,Wunderground v.1.15,2013-10-05 03:58:00,